Location: Unspecified
(0.0000°N, 0.0000°E)
Time: 23:55:58
(UTC+02:00)

ARIANE 5 R/B - Visible Passes

Search period start: 23 September 2017 00:00
Search period end: 03 October 2017 00:00
Orbit: 657 x 38444 km, 7.2° (Epoch: 22 September)

Date Brightness Start Highest point End Pass type
(mag) Time Alt. Az. Time Alt. Az. Time Alt. Az.
24 Sep 3.3 07:08:52 12° WNW 07:12:12 52° N 07:17:30 10° E visible
24 Sep 12.3 20:23:31 10° W 21:09:57 13° W 22:14:28 10° W visible
25 Sep 3.3 06:14:04 43° N 06:14:20 44° N 06:18:05 10° ENE visible
25 Sep 11.3 18:48:18 10° W 20:13:32 27° W 23:16:48 10° W visible
26 Sep 5.4 05:19:17 15° ENE 05:19:17 15° ENE 05:19:59 10° ENE visible
26 Sep 10.2 17:36:49 10° W 19:16:01 42° W 00:01:06 10° W visible
27 Sep 8.4 16:31:53 10° W 18:17:33 57° WSW 02:57:05 18° W visible
28 Sep 8.0 15:30:03 10° W 17:19:13 72° WSW 02:02:27 36° W visible
29 Sep 7.7 14:29:58 10° W 16:53:28 82° SSW 01:07:49 56° WNW visible
30 Sep 7.4 13:30:58 10° W 17:56:22 84° S 00:13:11 77° NW visible
01 Oct 7.1 12:32:40 10° W 18:41:16 85° S 23:18:32 71° ENE visible
02 Oct 6.6 11:34:50 10° W 19:39:15 87° S 22:23:53 49° ENE visible
